Regional Weather Roundup
Issued by NWS

Home | Current Version | Previous Version | Text Only | Print | Product List | Glossary On
Versions: 1 2 3 4 5 6 7 8 9 10 11 12 13 14 15 16 17 18 19 20 21 22 23 24 25 26 27 28 29 30 31 32 33 34 35 36 37 38 39 40 41 42 43 44 45 46 47 48 49 50
000
ASUS42 KFFC 160210
RWRGA
WEATHER ROUNDUP FOR GEORGIA
NATIONAL WEATHER SERVICE PEACHTREE CITY GA
900 PM EST FRI DEC 15 2017

NOTE: "FAIR" INDICATES FEW OR NO CLOUDS BELOW 12,000 FEET WITH NO
SIGNIFICANT WEATHER AND/OR OBSTRUCTIONS TO VISIBILITY.

* = USE WITH CAUTION. THE STATIONS MARKED WITH AN ASTERISK MAY NOT
REPORT WEATHER SUCH AS PRECIPITATION, FOG, OR THUNDER AND ARE NOT
QUALITY CONTROLLED BY NWS.

THE REMARK "TC" DENOTES TEMPERATURE READING IN DEGREES CELSIUS.

GAZ001>058-160300-
NORTH GEORGIA

CITY           SKY/WX    TMP DP  RH WIND       PRES   REMARKS
ATLANTA        MOCLDY    34  25  69 NW9       30.18S WCI  27
ATHENS         PTCLDY    34  24  67 W7        30.16R WCI  28
CHAMBLEE       CLEAR     31  22  69 W5        30.18R WCI  26
PEACHTREE CITY CLOUDY    36  24  62 NW8       30.19S WCI  30
ROME           PTCLDY    29  24  82 CALM      30.20S
WEST ATLANTA   CLEAR     33  24  69 W3        30.19S
GAINESVILLE    CLEAR     31  22  69 W8        30.14S WCI  23
CARTERSVILLE   CLEAR     28  24  85 CALM      30.21R


CITY           SKY/WX    TMP DP  RH WIND       PRES   REMARKS
DALTON*        CLEAR     27  25  93 CALM      30.23R
LAWRENCEVILLE* CLEAR     32  22  66 VRB7      30.16S WCI  26
MARIETTA       PTCLDY    30  22  71 W8        30.18R WCI  23
KENNESAW*      CLEAR     32  23  69 W6        30.19R WCI  26
CANTON*        CLEAR     32  27  80 CALM      30.16F
$$

GAZ059>098-102>109-160300-
CENTRAL GEORGIA

CITY           SKY/WX    TMP DP  RH WIND       PRES   REMARKS
AUGUSTA-BUSH   PTCLDY    44  25  47 NW10      30.14R
AUGUSTA-DANIEL PTCLDY    44  25  47 W9        30.13R
COLUMBUS       CLOUDY    42  25  50 N5        30.20S
MACON          PTCLDY    41  26  55 NW6       30.19R
ROBINS AFB     CLOUDY    42  26  53 NW8       30.19R


CITY           SKY/WX    TMP DP  RH WIND       PRES   REMARKS
LAGRANGE*      CLOUDY    38  26  61 N3        30.20R
SYLVANIA*      PTCLDY    50  34  54 NW9G17    30.14R
MILLEDGEVILLE* PTCLDY    41  28  60 NW7       30.18R
$$

GAZ099>101-110>166-160300-
SOUTH GEORGIA

CITY           SKY/WX    TMP DP  RH WIND       PRES   REMARKS
SAVANNAH       CLOUDY    53  38  56 W9        30.12R
VALDOSTA       CLOUDY    52  39  61 CALM      30.17R
ALMA           CLOUDY    52  37  56 NW7       30.15R
ST SIMONS      CLOUDY    56  44  64 W8        30.13R
FT STEWART     CLOUDY    53  37  54 W7        30.10
ALBANY         CLOUDY    46  30  53 N5        30.21S
HUNTER AFB     CLOUDY    53  39  58 W13       30.09R
MOODY AFB      CLOUDY    51  38  61 NW8       30.15R
BRUNSWICK      MOCLDY    54  41  62 W7        30.13R


CITY           SKY/WX    TMP DP  RH WIND       PRES   REMARKS
BAINBRIDGE*    PTCLDY    48  36  61 NW7       30.21R
MOULTRIE*      CLOUDY    48  34  57 NW10      30.19R
VIDALIA*       PTCLDY    50  32  50 W8G18     30.16R
WAYCROSS*      CLOUDY    53  39  59 NW6       30.15R
DOUGLAS*       CLOUDY    50  36  57 NW8       30.18S
$$




USA.gov is the U.S. government's official web portal to all federal, state and local government web resources and services.